Hourly Data Report for July 20, 2006

TORONTO CITY
ONTARIO

43°40'00.000" N
79°24'00.000" W
112.50 m
6158355
71508
XTO

Download Data

Hourly Data (July 2006)
Hourly Data Report for July 20, 2006
TIME
LST
Temp Definition
°C
Dew Point Definition
°C
Rel Hum Definition
%
Precip. Amount Definition
mm

Wind Dir Definition
10's deg

Wind Spd Definition
km/h
Visibility Definition
km
Stn Press Definition
kPa
Hmdx Definition


Wind Chill Definition


Weather Definition


00:00 22.8 20.0 84   LegendMM LegendMM   100.48 30   LegendNANA
01:00 22.7 19.6 83   LegendMM LegendMM   100.39 30   LegendNANA
02:00 22.2 19.7 86   LegendMM LegendMM   100.31 30   LegendNANA
03:00 21.7 19.8 89   LegendMM LegendMM   100.28 29   LegendNANA
04:00 21.6 20.3 92   LegendMM LegendMM   100.26 29   LegendNANA
05:00 20.7 19.7 94   LegendMM LegendMM   100.23 28   LegendNANA
06:00 21.1 20.1 94   LegendMM LegendMM   100.37 29   LegendNANA
07:00 22.8 21.4 92   LegendMM LegendMM   100.30 32   LegendNANA
08:00 24.4 21.1 82   LegendMM LegendMM   100.32 33   LegendNANA
09:00 25.3 21.1 78   LegendMM LegendMM   100.29 34   LegendNANA
10:00 25.7 21.6 78   LegendMM LegendMM   100.23 35   LegendNANA
11:00 26.8 21.7 74   LegendMM LegendMM   100.23 36   LegendNANA
12:00 27.4 22.3 74   LegendMM LegendMM   100.20 37   LegendNANA
13:00 27.2 22.4 75   LegendMM LegendMM   100.10 37   LegendNANA
14:00 26.7 22.7 79   LegendMM LegendMM   100.06 37   LegendNANA
15:00 26.4 21.9 76   LegendMM LegendMM   100.06 36   LegendNANA
16:00 24.9 21.1 79   LegendMM LegendMM   100.14 33   LegendNANA
17:00 23.5 21.9 91   LegendMM LegendMM   100.03 33   LegendNANA
18:00 23.6 21.8 90   LegendMM LegendMM   99.98 33   LegendNANA
19:00 22.9 21.4 91   LegendMM LegendMM   99.92 32   LegendNANA
20:00 22.3 21.2 93   LegendMM LegendMM   99.93 31   LegendNANA
21:00 22.4 21.3 94   LegendMM LegendMM   99.93 31   LegendNANA
22:00 22.8 20.9 89   LegendMM LegendMM   99.98 31   LegendNANA
23:00 22.9 20.9 89   LegendMM LegendMM   99.97 31   LegendNANA

Notes on Data Quality.

Legend

  • E = Estimated
  • M = Missing
  • NA = Not Available*
  • [empty] = Indicates an unobserved value
Date modified: